Find Starlink 4510

NORAD ID: 53405 Int'l Des: 2022-097 Owner: SPXS Country: US Constellation: starlink operational
LEOCIRCULAR

Live Position

Loading 3D Globe...

About Starlink 4510

Description loading...

Upcoming Passes

Passes for default location (London). Set your location on the main map for personalized predictions.

Altitude History

Loading altitude history...

Two-Line Element Set

1 53405U 22097T 26120.72555641 -.00003619 00000-0 -20938-3 0 9999
2 53405 53.2165 250.5220 0001212 82.8935 277.2195 15.08843895206370
Epoch: Apr 30, 2026 • Age: 15 hours

Current Status

Altitude 544.4 km
Velocity 7.60 km/s
Sub-Earth Point 48.03°N, 29.47°E
Launch Date Aug 10, 2022
Age 3.7 years
Type internet

Technical Details

Classification Payload
Mass 297.00 kg
Dry Mass 275.00 kg
Total Mass 297.00 kg
Length 0.20 m
Diameter 2.80 m
Span 9.00 m
Shape Box + pan
Manufacturer SPXS
Bus Type Starlink
Phase Status In Orbit
Owner/State SPXS/US

Most Searched